Weather History for Tonopah, NV

Change the Weather History Date:

Saturday, December 8, 2012

  Actual Average Record
Temperature  
Mean Temperature 37 °F 32 °F  
Max Temperature 51 °F 45 °F 61 °F (1979)
Min Temperature 22 °F 20 °F -2 °F (2013)
Degree Days  
Heating Degree Days 28 33  
Month to date heating degree days 184 254  
Since 1 July heating degree days 1105 1471  
Cooling Degree Days 0 0  
Month to date cooling degree days 0 0  
Year to date cooling degree days 1004 783  
Moisture  
Dew Point 15 °F    
Average Humidity 42    
Maximum Humidity 60    
Minimum Humidity 23    
Precipitation  
Precipitation 0.00 in 0.01 in 0.16 in (1984)
Month to date precipitation 0.01 0.09  
Year to date precipitation 5.95 5.02  
Sea Level Pressure  
Sea Level Pressure 30.04 in    
Wind  
Wind Speed 13 mph (North)    
Max Wind Speed -    
Max Gust Speed -    
Visibility 10 miles    
Events      
T = Trace of Precipitation, MM = Missing Value Source: NWS Daily Summary

Daily Weather History Graph

Daily Weather History Graph

Search for Another Location

Airport:

Trip Planner

Search our weather history database for the weather conditions in past years. The results will help you decide how hot, cold, wet, or windy it might be!

Date:

Astronomy

Dec. 08, 2012 Rise Set
Actual Time 6:52 AM PST 4:28 PM PST
Civil Twilight 6:23 AM PST 4:57 PM PST
Nautical Twilight 5:50 AM PST 5:30 PM PST
Astronomical Twilight 5:18 AM PST 6:02 PM PST
Moon 1:26 AM PST (12/8) 12:57 PM PST (12/8)
Length of Visible Light 10h 34m
Length of Day
9h 36m
Waning Crescent, 27% of the Moon is Illuminated
Dec 8
Waning Crescent
Dec 13
New
Dec 19
First Quarter
Dec 28
Full
Jan 4
Last Quarter

Hourly Weather History & Observations

Time (PST) Temp. Dew Point Humidity Pressure Visibility Wind Dir Wind Speed Gust Speed Precip Events Conditions
12:56 AM 26.1 °F 12.9 °F 58% 30.05 in 10.0 mi North - - N/A   Clear
1:56 AM 26.1 °F 12.9 °F 58% 30.05 in 10.0 mi North - - N/A   Clear
2:56 AM 27.0 °F 12.0 °F 53% 30.04 in 10.0 mi North - - N/A   Clear
3:56 AM 24.1 °F 12.0 °F 60% 30.04 in 10.0 mi North - - N/A   Clear
4:56 AM 25.0 °F 10.9 °F 55% 30.05 in 10.0 mi North - - N/A   Clear
5:56 AM 27.0 °F 10.9 °F 51% 30.06 in 10.0 mi North - - N/A   Clear
6:56 AM 35.1 °F 12.0 °F 39% 30.05 in 10.0 mi North - - N/A   Clear
7:56 AM 37.0 °F 14.0 °F 39% 30.06 in 10.0 mi North - - N/A   Clear
8:56 AM 42.1 °F 12.9 °F 31% 30.07 in 10.0 mi North - - N/A   Clear
9:56 AM 46.9 °F 12.9 °F 25% 30.05 in 10.0 mi North - - N/A   Clear
10:56 AM 48.0 °F 12.9 °F 24% 30.06 in 10.0 mi North - - N/A   Clear
11:56 AM 48.9 °F 14.0 °F 25% 30.04 in 10.0 mi North - - N/A   Clear
12:56 PM 50.0 °F 15.1 °F 25% 30.02 in 10.0 mi North - - N/A   Clear
1:56 PM 50.0 °F 16.0 °F 26% 30.01 in 10.0 mi North - - N/A   Clear
2:56 PM 48.9 °F 17.1 °F 28% 30.01 in 10.0 mi North - - N/A   Clear
3:56 PM 46.9 °F 17.1 °F 30% 30.02 in 10.0 mi North - - N/A   Clear
4:56 PM 44.1 °F 17.1 °F 34% 30.03 in 10.0 mi North - - N/A   Clear
6:56 PM 41.0 °F 17.1 °F 38% 30.04 in 10.0 mi North - - N/A   Clear
7:56 PM 41.0 °F 17.1 °F 38% 30.04 in 10.0 mi North - - N/A   Clear
8:56 PM 41.0 °F 18.0 °F 40% 30.03 in 10.0 mi North - - N/A   Clear
9:56 PM 42.1 °F 19.0 °F 40% 30.02 in 10.0 mi North - - N/A   Clear
10:56 PM 37.0 °F 18.0 °F 46% 30.03 in 10.0 mi North - - N/A   Clear
11:56 PM 39.0 °F 19.0 °F 45% 30.04 in 10.0 mi North - - N/A   Clear